Time,TemperatureF,DewpointF,PressureIn,WindDirection,WindDirectionDegrees,WindSpeedMPH,WindSpeedGustMPH,Humidity,HourlyPrecipIn,Conditions,Clouds,dailyrainin,SoftwareType,DateUTC
2013-07-19 00:02:00,74.0,68.0,29.71,SE,133,0.0,-999.0,82,0.00,,,0.01,,2013-07-19 05:02:00,
2013-07-19 00:11:00,74.0,68.0,29.72,SE,133,0.0,-999.0,83,0.00,,,0.01,,2013-07-19 05:11:00,
2013-07-19 00:22:00,73.0,68.0,29.72,SE,133,0.0,-999.0,85,0.00,,,0.00,,2013-07-19 05:22:00,
2013-07-19 00:32:00,73.0,68.0,29.71,SE,133,0.0,-999.0,85,0.00,,,0.00,,2013-07-19 05:32:00,
2013-07-19 00:43:00,73.0,68.0,29.71,SE,133,0.0,-999.0,85,0.00,,,0.00,,2013-07-19 05:43:00,
2013-07-19 00:53:00,73.0,69.0,29.71,SE,133,0.0,-999.0,86,0.00,,,0.00,,2013-07-19 05:53:00,
2013-07-19 01:01:00,73.0,69.0,29.71,SE,133,0.0,-999.0,87,0.00,,,0.00,,2013-07-19 06:01:00,
2013-07-19 01:11:00,73.0,69.0,29.71,SE,133,0.0,-999.0,87,0.00,,,0.00,,2013-07-19 06:11:00,
2013-07-19 01:22:00,72.0,68.0,29.71,SE,133,0.0,-999.0,87,0.00,,,0.00,,2013-07-19 06:22:00,
2013-07-19 01:32:00,72.0,68.0,29.71,SE,133,0.0,-999.0,88,0.00,,,0.00,,2013-07-19 06:32:00,
2013-07-19 01:43:00,72.0,68.0,29.71,SE,133,0.0,-999.0,88,0.00,,,0.00,,2013-07-19 06:43:00,
2013-07-19 01:52:00,72.0,68.0,29.71,SE,133,0.0,-999.0,88,0.00,,,0.00,,2013-07-19 06:52:00,
2013-07-19 02:01:00,72.0,68.0,29.71,SE,133,0.0,-999.0,88,0.00,,,0.00,,2013-07-19 07:01:00,
2013-07-19 02:12:00,72.0,69.0,29.71,SE,133,0.0,-999.0,89,0.00,,,0.00,,2013-07-19 07:12:00,
2013-07-19 02:22:00,72.0,69.0,29.71,SE,133,0.0,-999.0,89,0.00,,,0.00,,2013-07-19 07:22:00,
2013-07-19 02:32:00,72.0,69.0,29.71,SE,133,0.0,-999.0,89,0.00,,,0.00,,2013-07-19 07:32:00,
2013-07-19 02:43:00,72.0,69.0,29.71,SE,133,0.0,-999.0,89,0.00,,,0.00,,2013-07-19 07:43:00,
2013-07-19 02:53:00,73.0,69.0,29.71,SE,140,0.0,-999.0,88,0.00,,,0.00,,2013-07-19 07:53:00,
2013-07-19 03:01:00,73.0,69.0,29.71,SE,140,0.0,-999.0,88,0.00,,,0.00,,2013-07-19 08:01:00,
2013-07-19 03:11:00,73.0,69.0,29.71,SE,140,0.0,-999.0,88,0.00,,,0.00,,2013-07-19 08:11:00,
2013-07-19 03:22:00,72.0,69.0,29.71,SE,140,0.0,-999.0,89,0.00,,,0.00,,2013-07-19 08:22:00,
2013-07-19 03:32:00,72.0,69.0,29.71,SE,140,0.0,-999.0,89,0.00,,,0.00,,2013-07-19 08:32:00,
2013-07-19 03:43:00,72.0,69.0,29.71,SE,140,0.0,-999.0,90,0.00,,,0.00,,2013-07-19 08:43:00,
2013-07-19 03:52:00,72.0,69.0,29.70,SE,140,0.0,-999.0,90,0.00,,,0.00,,2013-07-19 08:52:00,
2013-07-19 04:02:00,71.0,68.0,29.70,SE,140,0.0,-999.0,90,0.00,,,0.00,,2013-07-19 09:02:00,
2013-07-19 04:11:00,71.0,68.0,29.70,SE,140,1.0,-999.0,91,0.00,,,0.00,,2013-07-19 09:11:00,
2013-07-19 04:22:00,71.0,68.0,29.70,SE,140,0.0,-999.0,91,0.00,,,0.00,,2013-07-19 09:22:00,
2013-07-19 04:32:00,71.0,68.0,29.70,SE,140,0.0,-999.0,91,0.00,,,0.00,,2013-07-19 09:32:00,
2013-07-19 04:43:00,71.0,68.0,29.70,SE,140,0.0,-999.0,91,0.00,,,0.00,,2013-07-19 09:43:00,
2013-07-19 04:52:00,71.0,69.0,29.70,SE,140,0.0,-999.0,92,0.00,,,0.00,,2013-07-19 09:52:00,
2013-07-19 05:01:00,71.0,68.0,29.69,SE,140,0.0,-999.0,91,0.00,,,0.00,,2013-07-19 10:01:00,
2013-07-19 05:11:00,72.0,70.0,29.69,SE,140,0.0,-999.0,93,0.00,,,0.00,,2013-07-19 10:11:00,
2013-07-19 05:22:00,72.0,70.0,29.69,SE,140,0.0,-999.0,93,0.00,,,0.00,,2013-07-19 10:22:00,
2013-07-19 05:32:00,72.0,70.0,29.70,SE,140,0.0,-999.0,92,0.00,,,0.00,,2013-07-19 10:32:00,
2013-07-19 05:43:00,71.0,69.0,29.70,SE,140,0.0,-999.0,92,0.00,,,0.00,,2013-07-19 10:43:00,
2013-07-19 05:52:00,71.0,69.0,29.70,SE,140,0.0,-999.0,92,0.00,,,0.00,,2013-07-19 10:52:00,
2013-07-19 06:02:00,71.0,69.0,29.70,SE,140,0.0,-999.0,93,0.00,,,0.00,,2013-07-19 11:02:00,
2013-07-19 06:12:00,71.0,69.0,29.70,SE,140,0.0,-999.0,93,0.00,,,0.00,,2013-07-19 11:12:00,
2013-07-19 06:22:00,70.0,68.0,29.70,SE,140,0.0,-999.0,93,0.00,,,0.00,,2013-07-19 11:22:00,
2013-07-19 06:33:00,71.0,69.0,29.70,SE,140,0.0,-999.0,93,0.00,,,0.00,,2013-07-19 11:33:00,
2013-07-19 06:43:00,71.0,69.0,29.70,SE,140,0.0,-999.0,93,0.00,,,0.00,,2013-07-19 11:43:00,
2013-07-19 06:52:00,70.0,68.0,29.70,SE,140,0.0,-999.0,93,0.00,,,0.00,,2013-07-19 11:52:00,
2013-07-19 07:01:00,71.0,69.0,29.70,SE,140,0.0,-999.0,93,0.00,,,0.00,,2013-07-19 12:01:00,
2013-07-19 07:12:00,71.0,69.0,29.71,SE,140,0.0,-999.0,94,0.00,,,0.00,,2013-07-19 12:12:00,
2013-07-19 07:22:00,71.0,69.0,29.72,SE,140,0.0,-999.0,93,0.00,,,0.00,,2013-07-19 12:22:00,
2013-07-19 07:33:00,71.0,69.0,29.71,SE,140,0.0,-999.0,93,0.00,,,0.00,,2013-07-19 12:33:00,
2013-07-19 07:43:00,72.0,70.0,29.72,SE,140,0.0,-999.0,94,0.00,,,0.00,,2013-07-19 12:43:00,
2013-07-19 07:52:00,72.0,70.0,29.72,SW,216,0.0,-999.0,94,0.00,,,0.00,,2013-07-19 12:52:00,
2013-07-19 08:02:00,72.0,70.0,29.72,SW,216,0.0,-999.0,94,0.00,,,0.00,,2013-07-19 13:02:00,
2013-07-19 08:11:00,73.0,71.0,29.72,SW,218,0.0,-999.0,93,0.00,,,0.00,,2013-07-19 13:11:00,
2013-07-19 08:22:00,73.0,71.0,29.73,SW,218,0.0,-999.0,92,0.00,,,0.00,,2013-07-19 13:22:00,
2013-07-19 08:32:00,74.0,71.0,29.73,SW,218,0.0,-999.0,91,0.00,,,0.00,,2013-07-19 13:32:00,
2013-07-19 08:43:00,74.0,71.0,29.73,SW,218,0.0,-999.0,91,0.00,,,0.00,,2013-07-19 13:43:00,
2013-07-19 08:53:00,75.0,71.0,29.73,SW,218,0.0,-999.0,88,0.00,,,0.00,,2013-07-19 13:53:00,
2013-07-19 09:02:00,76.0,72.0,29.73,SW,221,1.0,-999.0,87,0.00,,,0.00,,2013-07-19 14:02:00,
2013-07-19 09:11:00,76.0,72.0,29.73,SW,221,0.0,-999.0,86,0.00,,,0.00,,2013-07-19 14:11:00,
2013-07-19 09:22:00,77.0,72.0,29.73,SW,223,0.0,-999.0,85,0.00,,,0.00,,2013-07-19 14:22:00,
2013-07-19 09:33:00,77.0,71.0,29.73,SW,229,0.0,-999.0,83,0.00,,,0.00,,2013-07-19 14:33:00,
2013-07-19 09:43:00,78.0,72.0,29.73,SW,233,0.0,-999.0,82,0.00,,,0.00,,2013-07-19 14:43:00,
2013-07-19 09:52:00,79.0,73.0,29.73,SW,231,0.0,-999.0,81,0.00,,,0.00,,2013-07-19 14:52:00,
2013-07-19 10:02:00,79.0,72.0,29.73,WSW,241,0.0,-999.0,79,0.00,,,0.00,,2013-07-19 15:02:00,
2013-07-19 10:11:00,79.0,72.0,29.73,WSW,241,0.0,-999.0,79,0.00,,,0.00,,2013-07-19 15:11:00,
2013-07-19 10:22:00,81.0,73.0,29.72,WSW,238,0.0,-999.0,77,0.00,,,0.00,,2013-07-19 15:22:00,
2013-07-19 10:32:00,81.0,72.0,29.72,SW,231,0.0,-999.0,73,0.00,,,0.00,,2013-07-19 15:32:00,
2013-07-19 10:43:00,82.0,73.0,29.72,SW,216,1.0,-999.0,74,0.00,,,0.00,,2013-07-19 15:43:00,
2013-07-19 10:52:00,83.0,73.0,29.72,SW,224,3.0,-999.0,71,0.00,,,0.00,,2013-07-19 15:52:00,
2013-07-19 11:01:00,83.0,73.0,29.72,SW,224,3.0,-999.0,71,0.00,,,0.00,,2013-07-19 16:01:00,
2013-07-19 11:11:00,84.0,72.0,29.72,SSW,202,1.0,-999.0,68,0.00,,,0.00,,2013-07-19 16:11:00,
2013-07-19 11:22:00,84.0,72.0,29.72,West,267,2.0,-999.0,68,0.00,,,0.00,,2013-07-19 16:22:00,
2013-07-19 11:32:00,85.0,73.0,29.71,WSW,258,0.0,-999.0,67,0.00,,,0.00,,2013-07-19 16:32:00,
2013-07-19 11:43:00,86.0,72.0,29.71,West,266,2.0,-999.0,63,0.00,,,0.00,,2013-07-19 16:43:00,
2013-07-19 11:52:00,86.0,71.0,29.71,ENE,70,0.0,-999.0,61,0.00,,,0.00,,2013-07-19 16:52:00,
2013-07-19 12:02:00,86.0,69.0,29.71,SSW,203,0.0,-999.0,58,0.00,,,0.00,,2013-07-19 17:02:00,
2013-07-19 12:12:00,86.0,69.0,29.70,SW,224,1.0,-999.0,57,0.00,,,0.00,,2013-07-19 17:12:00,
2013-07-19 12:22:00,87.0,69.0,29.70,ENE,74,4.0,-999.0,56,0.00,,,0.00,,2013-07-19 17:22:00,
2013-07-19 12:32:00,87.0,69.0,29.70,ENE,74,4.0,-999.0,56,0.00,,,0.00,,2013-07-19 17:32:00,
2013-07-19 12:43:00,88.0,69.0,29.70,SE,137,0.0,-999.0,54,0.00,,,0.00,,2013-07-19 17:43:00,
2013-07-19 13:01:00,88.0,69.0,29.69,SE,143,0.0,-999.0,53,0.00,,,0.00,,2013-07-19 18:01:00,
2013-07-19 13:11:00,88.0,68.0,29.69,SW,220,1.0,-999.0,52,0.00,,,0.00,,2013-07-19 18:11:00,
2013-07-19 13:32:00,89.0,68.0,29.68,SE,141,2.0,-999.0,50,0.00,,,0.00,,2013-07-19 18:32:00,
2013-07-19 13:42:00,89.0,68.0,29.68,SW,221,1.0,-999.0,51,0.00,,,0.00,,2013-07-19 18:42:00,
2013-07-19 14:01:00,90.0,68.0,29.67,SW,216,3.0,-999.0,48,0.00,,,0.00,,2013-07-19 19:01:00,
2013-07-19 14:11:00,90.0,68.0,29.66,East,92,6.0,-999.0,49,0.00,,,0.00,,2013-07-19 19:11:00,
2013-07-19 14:32:00,90.0,67.0,29.66,SE,124,2.0,-999.0,47,0.00,,,0.00,,2013-07-19 19:32:00,
2013-07-19 14:43:00,90.0,66.0,29.65,SE,131,2.0,-999.0,46,0.00,,,0.00,,2013-07-19 19:43:00,
2013-07-19 15:01:00,90.0,68.0,29.65,ENE,78,1.0,-999.0,48,0.00,,,0.00,,2013-07-19 20:01:00,
2013-07-19 15:11:00,91.0,68.0,29.65,East,94,1.0,-999.0,47,0.00,,,0.00,,2013-07-19 20:11:00,
2013-07-19 15:33:00,91.0,67.0,29.65,North,355,0.0,-999.0,45,0.00,,,0.00,,2013-07-19 20:33:00,
2013-07-19 15:43:00,92.0,67.0,29.64,ESE,111,1.0,-999.0,44,0.00,,,0.00,,2013-07-19 20:43:00,
2013-07-19 15:52:00,92.0,65.0,29.64,NNW,342,1.0,-999.0,41,0.00,,,0.00,,2013-07-19 20:52:00,
2013-07-19 16:01:00,93.0,67.0,29.63,ENE,72,7.0,-999.0,43,0.00,,,0.00,,2013-07-19 21:01:00,
2013-07-19 16:11:00,93.0,66.0,29.62,SSE,152,0.0,-999.0,41,0.00,,,0.00,,2013-07-19 21:11:00,
2013-07-19 16:21:00,93.0,66.0,29.62,ENE,60,1.0,-999.0,41,0.00,,,0.00,,2013-07-19 21:21:00,
2013-07-19 16:32:00,93.0,65.0,29.61,ESE,111,0.0,-999.0,40,0.00,,,0.00,,2013-07-19 21:32:00,
2013-07-19 16:42:00,94.0,65.0,29.61,SE,130,0.0,-999.0,39,0.00,,,0.00,,2013-07-19 21:42:00,
2013-07-19 16:52:00,94.0,65.0,29.60,South,187,3.0,-999.0,39,0.00,,,0.00,,2013-07-19 21:52:00,
2013-07-19 17:01:00,94.0,65.0,29.60,SSW,207,0.0,-999.0,39,0.00,,,0.00,,2013-07-19 22:01:00,
2013-07-19 17:11:00,94.0,65.0,29.59,SE,145,0.0,-999.0,39,0.00,,,0.00,,2013-07-19 22:11:00,
2013-07-19 17:21:00,94.0,65.0,29.59,East,82,2.0,-999.0,39,0.00,,,0.00,,2013-07-19 22:21:00,
2013-07-19 17:32:00,93.0,64.0,29.59,SSW,211,0.0,-999.0,39,0.00,,,0.00,,2013-07-19 22:32:00,
2013-07-19 17:42:00,93.0,66.0,29.58,ENE,58,3.0,-999.0,42,0.00,,,0.00,,2013-07-19 22:42:00,
2013-07-19 17:52:00,93.0,66.0,29.58,ESE,123,1.0,-999.0,41,0.00,,,0.00,,2013-07-19 22:52:00,
2013-07-19 18:01:00,93.0,66.0,29.58,ESE,123,1.0,-999.0,41,0.00,,,0.00,,2013-07-19 23:01:00,
2013-07-19 18:11:00,93.0,65.0,29.57,SSW,192,1.0,-999.0,40,0.00,,,0.00,,2013-07-19 23:11:00,
2013-07-19 18:21:00,93.0,65.0,29.57,East,96,2.0,-999.0,40,0.00,,,0.00,,2013-07-19 23:21:00,
2013-07-19 18:32:00,92.0,64.0,29.57,East,101,0.0,-999.0,40,0.00,,,0.00,,2013-07-19 23:32:00,
2013-07-19 18:43:00,92.0,63.0,29.57,South,182,0.0,-999.0,39,0.00,,,0.00,,2013-07-19 23:43:00,
2013-07-19 18:52:00,92.0,65.0,29.57,SSE,155,0.0,-999.0,41,0.00,,,0.00,,2013-07-19 23:52:00,
2013-07-19 19:01:00,92.0,65.0,29.57,ESE,123,0.0,-999.0,41,0.00,,,0.00,,2013-07-20 00:01:00,
2013-07-19 19:11:00,92.0,65.0,29.57,ESE,123,0.0,-999.0,41,0.00,,,0.00,,2013-07-20 00:11:00,
2013-07-19 19:21:00,92.0,66.0,29.57,SE,140,1.0,-999.0,42,0.00,,,0.00,,2013-07-20 00:21:00,
2013-07-19 19:32:00,91.0,65.0,29.57,ESE,117,1.0,-999.0,42,0.00,,,0.00,,2013-07-20 00:32:00,
2013-07-19 19:43:00,91.0,64.0,29.57,SE,134,0.0,-999.0,41,0.00,,,0.00,,2013-07-20 00:43:00,
2013-07-19 19:52:00,90.0,64.0,29.56,SE,134,0.0,-999.0,43,0.00,,,0.00,,2013-07-20 00:52:00,
2013-07-19 20:01:00,90.0,68.0,29.56,SE,134,0.0,-999.0,48,0.00,,,0.00,,2013-07-20 01:01:00,
2013-07-19 20:11:00,89.0,68.0,29.57,SE,134,0.0,-999.0,50,0.00,,,0.00,,2013-07-20 01:11:00,
2013-07-19 20:22:00,88.0,69.0,29.57,SE,134,0.0,-999.0,53,0.00,,,0.00,,2013-07-20 01:22:00,
2013-07-19 20:32:00,86.0,69.0,29.57,SE,134,0.0,-999.0,57,0.00,,,0.00,,2013-07-20 01:32:00,
2013-07-19 20:52:00,86.0,69.0,29.59,East,97,1.0,-999.0,58,0.00,,,0.00,,2013-07-20 01:52:00,
2013-07-19 21:01:00,85.0,70.0,29.59,East,96,1.0,-999.0,60,0.00,,,0.00,,2013-07-20 02:01:00,
2013-07-19 21:11:00,84.0,70.0,29.59,East,101,5.0,-999.0,62,0.00,,,0.00,,2013-07-20 02:11:00,
2013-07-19 21:22:00,83.0,69.0,29.60,East,83,6.0,-999.0,63,0.00,,,0.00,,2013-07-20 02:22:00,
2013-07-19 21:32:00,83.0,69.0,29.60,East,83,6.0,-999.0,63,0.00,,,0.00,,2013-07-20 02:32:00,
2013-07-19 21:43:00,82.0,69.0,29.60,East,80,3.0,-999.0,65,0.00,,,0.00,,2013-07-20 02:43:00,
2013-07-19 21:52:00,81.0,69.0,29.60,East,88,2.0,-999.0,68,0.00,,,0.00,,2013-07-20 02:52:00,
2013-07-19 22:02:00,80.0,69.0,29.61,ENE,76,1.0,-999.0,69,0.00,,,0.00,,2013-07-20 03:02:00,
2013-07-19 22:11:00,80.0,69.0,29.61,ENE,76,1.0,-999.0,69,0.00,,,0.00,,2013-07-20 03:11:00,
2013-07-19 22:22:00,80.0,69.0,29.62,ENE,59,4.0,-999.0,70,0.00,,,0.00,,2013-07-20 03:22:00,
2013-07-19 22:32:00,79.0,69.0,29.63,East,96,0.0,-999.0,72,0.00,,,0.00,,2013-07-20 03:32:00,
2013-07-19 22:44:00,79.0,70.0,29.63,East,81,0.0,-999.0,73,0.00,,,0.00,,2013-07-20 03:44:00,
2013-07-19 22:53:00,79.0,70.0,29.64,East,100,1.0,-999.0,73,0.00,,,0.00,,2013-07-20 03:53:00,
2013-07-19 23:02:00,79.0,70.0,29.64,East,92,2.0,-999.0,73,0.00,,,0.00,,2013-07-20 04:02:00,
2013-07-19 23:11:00,79.0,70.0,29.64,East,88,0.0,-999.0,74,0.00,,,0.00,,2013-07-20 04:11:00,
2013-07-19 23:22:00,79.0,70.0,29.64,East,82,2.0,-999.0,75,0.00,,,0.00,,2013-07-20 04:22:00,
2013-07-19 23:33:00,78.0,69.0,29.65,East,90,2.0,-999.0,75,0.00,,,0.00,,2013-07-20 04:33:00,
2013-07-19 23:44:00,78.0,69.0,29.65,ENE,76,1.0,-999.0,75,0.00,,,0.00,,2013-07-20 04:44:00,
2013-07-19 23:52:00,78.0,70.0,29.65,ESE,103,2.0,-999.0,76,0.00,,,0.00,,2013-07-20 04:52:00,